Wind_Speed
26 25 24 22 21 21 21 20 19 19 19 20 22 22 23 24 26 27 29 30 32 33 34 36 39 41 42 43 44 46 47 48 49 50 51 51 51 51 51 52 51 50 50
25 25 24 23 22 22 22 21 20 21 21 21 22 23 25 26 28 30 31 32 34 36 37 39 41 42 43 44 45 46 46 47 48 48 49 49 49 48 49 48 48 47 47
25 25 24 23 23 23 23 23 23 23 23 24 25 26 27 29 30 32 33 35 36 38 39 40 41 42 43 44 44 45 45 46 46 46 46 46 45 45 44 44 44 43 42
25 25 25 25 25 25 25 26 25 25 25 26 27 28 30 31 33 34 35 36 37 38 39 40 40 41 42 42 43 43 43 43 43 42 41 41 40 40 39 38 37 36 36
24 24 24 25 26 25 25 25 25 25 27 28 29 30 30 32 33 34 34 35 36 37 37 38 39 40 40 40 40 40 39 38 37 37 36 35 35 34 34 33 33 32 32
23 23 24 24 24 24 24 25 26 26 27 28 29 29 30 31 32 33 33 34 35 35 36 36 36 37 37 36 36 34 33 33 32 31 31 31 31 30 30 29 28 28 27
22 22 23 23 22 23 24 25 26 26 27 28 28 29 30 30 31 32 32 33 33 33 33 33 32 32 31 31 30 29 28 28 27 27 27 27 27 27 26 25 25 24 24
20 21 22 23 23 24 24 24 25 25 26 27 27 28 28 28 29 29 30 30 30 30 29 28 27 26 25 25 24 25 24 24 25 25 25 24 24 23 23 22 22 22 21
18 20 21 21 22 22 23 23 24 24 25 25 25 26 26 26 27 27 27 26 26 25 24 23 23 23 22 22 22 22 22 22 22 23 23 22 22 22 21 20 20 19 19
17 18 19 19 20 20 21 22 22 22 23 23 24 24 24 24 24 24 23 23 22 22 22 22 22 21 20 20 20 20 21 21 21 21 21 20 19 19 18 18 17 17 17
17 17 17 18 19 19 19 20 20 21 21 22 22 22 22 22 21 21 20 20 20 20 20 20 20 19 19 19 19 19 19 20 20 19 19 18 18 17 17 16 16 16 15
16 16 16 16 17 18 18 19 19 19 20 20 20 20 19 19 18 18 17 18 18 18 18 18 18 18 17 17 18 18 19 18 18 17 17 17 16 16 16 15 14 14 13
14 14 15 15 15 15 16 16 17 17 17 17 17 16 16 16 16 16 16 16 16 16 15 15 15 16 16 16 17 17 17 17 16 16 16 16 15 15 14 14 13 12 12
12 12 12 12 12 13 13 14 14 14 14 14 14 14 14 14 14 14 14 13 13 13 13 13 14 14 15 16 16 16 16 16 15 14 14 14 14 13 12 12 11 10 10
10 10 10 11 12 12 12 12 12 12 12 12 12 12 12 12 11 11 11 11 11 11 11 12 12 13 13 14 15 15 15 14 13 13 12 12 12 11 11 10 9 9 9
7 8 8 8 9 9 9 9 9 9 10 10 10 9 9 9 8 8 9 9 9 9 10 11 11 12 12 13 13 13 13 12 12 11 11 10 10 10 9 9 9 8 8
5 5 6 6 6 6 6 5 6 6 6 6 6 6 6 6 6 6 7 7 8 9 9 10 10 11 11 11 11 11 11 10 10 10 9 9 8 8 8 7 7 7 7
3 3 3 3 3 3 3 3 3 3 2 2 2 3 3 3 4 5 6 7 7 8 8 9 9 10 10 10 10 10 10 9 9 8 8 8 7 7 6 6 5 5 5
0 0 1 1 1 1 1 1 1 1 1 1 2 2 2 3 4 5 5 6 7 7 8 9 9 10 10 10 9 9 9 8 8 7 7 6 6 6 5 5 5 5 5
3 3 3 3 3 3 3 3 3 3 3 3 3 3 4 4 5 5 6 7 7 8 8 9 10 10 10 10 10 9 9 8 8 7 6 6 6 6 5 5 5 5 5
6 6 5 5 5 5 5 5 5 5 5 5 5 5 6 6 6 7 7 8 8 9 9 10 10 10 10 10 10 10 9 9 8 8 7 7 7 7 7 7 7 7 7
10 9 9 8 8 7 7 7 7 7 7 7 7 7 7 7 7 8 8 8 9 9 10 11 11 11 11 11 11 11 10 10 10 9 9 8 8 8 8 8 8 8 8
13 12 11 10 10 9 9 9 9 8 8 8 8 8 8 8 8 9 9 9 10 10 11 11 12 12 12 12 12 12 11 11 11 10 10 10 9 9 9 9 8 8 8
14 13 13 12 11 11 11 10 10 9 9 8 8 8 8 9 9 9 9 10 10 10 11 12 12 13 13 13 13 13 12 12 12 11 11 11 11 10 10 9 9 9 8
16 15 14 13 13 12 11 11 10 10 9 9 9 9 9 8 9 9 9 10 10 10 11 11 12 12 13 13 13 13 12 12 12 11 11 11 11 10 10 9 9 8 8
16 15 14 13 13 12 12 11 11 10 10 9 9 9 8 9 9 9 9 10 10 10 10 10 11 11 12 12 12 12 12 12 11 11 10 10 9 9 9 8 8 8 8
Wind_Direction
247 249 250 251 251 252 254 255 255 256 257 254 253 255 257 258 259 261 264 266 268 270 272 273 275 276 277 278 279 280 281 282 283 284 285 285 286 287 288 288 289 289 289
246 249 251 250 253 253 254 255 255 255 257 258 259 259 259 260 261 264 266 269 271 273 274 276 276 278 279 280 281 281 283 284 285 286 287 287 288 289 289 290 290 291 292
245 247 249 249 251 252 254 256 256 256 257 257 258 260 263 265 267 270 270 272 274 275 277 278 278 279 281 282 282 284 285 286 286 287 288 288 289 290 291 292 293 294 295
243 245 247 248 249 252 253 254 256 257 259 260 262 264 266 267 269 271 273 274 276 277 279 280 281 282 283 283 285 286 286 287 288 289 290 291 292 293 294 295 296 297 298
244 246 248 248 248 250 253 254 255 258 260 263 265 267 269 270 272 274 277 277 279 280 282 283 283 284 284 285 286 287 287 288 290 291 292 293 294 296 297 298 298 300 300
243 247 247 247 247 250 255 257 259 262 265 267 270 271 273 274 276 277 279 279 280 282 284 284 285 285 286 287 288 288 289 291 292 293 294 296 297 299 300 301 302 303 304
245 246 248 251 254 257 260 261 263 266 269 271 272 274 275 276 277 278 279 281 283 284 285 286 286 288 289 290 291 292 293 293 294 296 297 298 299 301 303 304 304 305 307
248 249 251 255 258 259 261 264 265 268 271 273 274 276 277 277 278 280 281 283 284 285 286 288 290 292 294 295 295 295 295 297 298 299 299 300 301 302 303 303 305 307 309
250 251 253 255 259 262 265 268 270 271 273 274 276 277 279 280 281 281 283 284 285 286 288 290 292 294 295 296 296 296 297 299 300 301 301 302 303 304 306 306 308 310 312
258 257 259 261 264 267 268 270 271 272 273 275 277 279 280 281 282 284 284 284 285 286 288 290 292 294 295 296 297 298 299 301 302 303 302 302 303 304 307 309 310 311 313
267 266 266 266 267 269 270 271 272 273 275 276 278 279 281 283 284 284 284 285 286 287 289 290 291 293 294 296 298 300 302 303 303 303 303 303 303 304 306 309 309 310 311
270 268 268 269 270 270 271 272 273 273 275 276 277 279 280 282 284 286 287 288 288 289 290 290 291 292 295 298 300 302 303 304 305 304 305 305 306 307 308 309 309 309 309
271 269 269 271 271 272 274 275 274 275 275 276 277 278 280 283 285 288 290 291 291 292 293 294 295 295 297 299 302 304 305 306 306 305 305 306 307 308 310 312 313 314 314
272 272 272 272 274 276 278 278 278 278 277 277 278 279 281 284 285 288 291 293 294 297 299 301 301 301 301 302 304 305 306 306 306 307 307 308 310 311 313 315 317 319 321
272 271 274 277 277 279 280 281 280 278 277 277 278 280 283 285 288 289 294 297 301 303 305 306 305 306 307 307 307 308 308 309 309 310 310 311 312 313 316 317 320 323 327
276 276 280 283 281 282 284 281 281 281 278 277 278 280 284 288 291 295 301 306 310 312 312 312 312 313 314 314 314 313 313 313 314 314 313 313 315 317 320 323 326 330 334
281 282 286 288 289 286 286 286 288 289 286 283 283 286 288 292 300 306 313 318 321 322 323 323 323 324 324 324 323 323 323 323 323 322 322 322 323 325 328 330 334 340 344
280 281 286 295 305 313 311 306 302 299 298 300 302 307 311 312 318 324 329 333 336 338 339 339 338 337 337 337 336 335 333 332 333 332 333 334 335 336 339 342 349 355 1
294 299 344 10 23 23 18 18 19 22 29 23 10 5 5 358 354 353 354 355 357 358 358 356 354 352 352 351 349 348 346 346 346 348 349 352 355 360 5 12 19 23 27
83 85 78 75 78 79 77 73 69 69 67 63 55 50 42 34 28 24 22 19 16 14 12 10 9 8 8 7 6 5 6 7 9 11 13 16 21 27 34 39 44 48 50
79 83 85 88 91 91 89 85 81 79 76 72 67 62 54 48 44 40 37 33 29 26 23 22 23 22 21 21 22 23 25 27 29 31 35 39 43 50 57 59 61 62 63
76 82 86 89 91 91 89 86 84 81 77 72 68 64 60 57 52 48 44 40 37 35 35 35 33 31 30 31 33 34 36 38 40 43 47 51 56 61 63 64 65 67 66
76 79 81 84 86 87 87 84 81 79 76 73 70 67 63 60 56 52 50 47 45 44 42 40 38 38 37 38 39 40 41 43 46 49 54 58 61 64 66 67 68 68 67
74 76 78 80 81 82 81 80 79 77 74 73 71 67 64 62 58 55 52 50 49 47 44 41 41 41 41 42 42 44 46 49 51 55 59 62 63 65 66 67 68 68 65
72 73 75 76 77 77 76 75 73 72 72 70 69 65 62 59 57 55 53 51 49 46 43 41 41 40 41 41 42 44 46 49 51 54 57 59 60 61 61 61 61 59 54
69 70 71 71 71 72 71 71 69 68 68 67 65 63 60 57 55 53 50 47 45 42 40 39 38 38 38 39 40 41 43 45 46 46 47 49 50 51 50 49 46 43 39
Height
5771 5773 5774 5774 5774 5775 5776 5776 5777 5777 5777 5778 5779 5779 5779 5780 5780 5780 5780 5780 5779 5778 5777 5776 5775 5773 5770 5768 5766 5763 5759 5756 5752 5749 5745 5741 5737 5733 5729 5725 5721 5717 5713
5765 5766 5767 5768 5769 5769 5770 5770 5771 5772 5772 5772 5773 5773 5773 5773 5773 5773 5772 5772 5771 5769 5768 5766 5764 5762 5760 5757 5755 5752 5748 5744 5741 5737 5734 5730 5726 5722 5718 5714 5709 5705 5701
5759 5760 5761 5762 5762 5763 5763 5764 5765 5765 5765 5766 5766 5766 5766 5766 5765 5765 5764 5763 5762 5760 5758 5756 5754 5752 5750 5747 5744 5741 5737 5734 5730 5726 5722 5719 5715 5711 5707 5703 5699 5695 5691
5752 5753 5754 5755 5756 5757 5757 5758 5758 5758 5759 5759 5759 5758 5758 5758 5757 5756 5755 5754 5752 5751 5749 5747 5744 5742 5739 5736 5733 5730 5727 5723 5720 5716 5712 5708 5705 5701 5698 5694 5690 5686 5681
5746 5747 5748 5748 5749 5750 5750 5750 5751 5751 5751 5751 5751 5751 5750 5750 5748 5747 5746 5744 5743 5741 5739 5737 5734 5732 5729 5726 5723 5720 5716 5713 5710 5706 5703 5699 5696 5693 5689 5685 5681 5677 5674
5739 5740 5741 5742 5742 5743 5744 5744 5744 5744 5744 5744 5743 5743 5742 5741 5740 5739 5737 5736 5734 5732 5730 5727 5725 5722 5719 5716 5713 5710 5708 5705 5701 5698 5695 5692 5688 5685 5681 5678 5674 5671 5668
5733 5734 5735 5735 5736 5737 5737 5737 5737 5737 5737 5736 5736 5735 5734 5733 5732 5730 5729 5727 5725 5723 5721 5718 5716 5713 5711 5708 5705 5702 5700 5697 5694 5691 5688 5685 5682 5678 5675 5672 5669 5666 5662
5727 5728 5729 5729 5730 5730 5730 5731 5731 5730 5730 5729 5729 5728 5727 5725 5724 5722 5721 5719 5717 5715 5713 5711 5708 5706 5703 5701 5698 5696 5693 5691 5688 5685 5682 5679 5676 5673 5670 5667 5664 5661 5658
5722 5722 5723 5724 5724 5724 5724 5724 5724 5724 5723 5723 5722 5720 5719 5718 5716 5715 5713 5712 5710 5708 5706 5704 5702 5700 5698 5695 5693 5690 5687 5685 5682 5679 5676 5673 5670 5668 5665 5662 5660 5657 5654
5717 5717 5718 5718 5718 5718 5718 5718 5718 5717 5717 5716 5715 5714 5712 5711 5709 5708 5707 5705 5704 5702 5700 5698 5696 5695 5692 5690 5688 5685 5682 5680 5677 5674 5671 5668 5666 5663 5661 5658 5656 5653 5650
5712 5713 5713 5713 5713 5713 5713 5712 5712 5711 5710 5710 5709 5708 5706 5705 5703 5702 5701 5699 5698 5696 5695 5693 5691 5689 5687 5685 5683 5680 5677 5675 5672 5669 5667 5664 5662 5659 5657 5655 5652 5650 5647
5707 5708 5708 5708 5708 5708 5707 5707 5706 5705 5704 5704 5703 5702 5701 5699 5698 5697 5696 5694 5693 5691 5690 5688 5686 5684 5682 5680 5678 5675 5673 5670 5668 5665 5663 5660 5658 5655 5653 5651 5649 5646 5644
5703 5703 5703 5703 5703 5702 5702 5701 5700 5700 5699 5698 5698 5697 5696 5695 5693 5692 5691 5690 5688 5687 5685 5683 5681 5679 5677 5675 5673 5671 5668 5666 5664 5661 5659 5656 5654 5652 5650 5648 5645 5643 5641
5699 5699 5699 5699 5698 5698 5697 5696 5696 5695 5695 5694 5693 5692 5691 5690 5689 5688 5687 5686 5684 5683 5681 5679 5677 5675 5673 5671 5669 5667 5664 5662 5660 5657 5655 5653 5651 5649 5647 5645 5643 5641 5639
5695 5695 5695 5695 5694 5694 5693 5692 5692 5691 5690 5690 5689 5689 5688 5687 5686 5685 5684 5682 5681 5679 5677 5676 5674 5672 5670 5667 5665 5663 5660 5658 5656 5654 5652 5650 5648 5646 5644 5642 5640 5639 5637
5692 5692 5691 5691 5690 5690 5689 5689 5688 5688 5687 5687 5686 5686 5685 5684 5683 5682 5681 5680 5678 5676 5675 5673 5671 5669 5666 5664 5662 5659 5657 5655 5653 5651 5649 5647 5646 5644 5642 5640 5639 5637 5635
5690 5689 5689 5689 5688 5687 5687 5687 5686 5686 5685 5684 5684 5683 5683 5682 5681 5681 5679 5678 5676 5674 5673 5671 5668 5666 5664 5661 5659 5657 5654 5652 5650 5649 5647 5645 5644 5642 5640 5639 5637 5636 5635
5688 5688 5687 5687 5686 5686 5686 5685 5685 5684 5684 5683 5683 5682 5682 5681 5680 5679 5678 5677 5675 5673 5671 5669 5667 5664 5662 5660 5657 5655 5653 5651 5649 5647 5645 5644 5642 5641 5639 5638 5637 5635 5634
5687 5687 5687 5686 5686 5686 5685 5685 5685 5684 5684 5683 5683 5682 5681 5681 5680 5679 5677 5676 5674 5672 5670 5668 5666 5663 5661 5659 5656 5654 5652 5650 5648 5646 5644 5643 5641 5640 5639 5638 5637 5636 5635
5687 5687 5687 5687 5686 5686 5686 5686 5685 5685 5684 5684 5683 5683 5682 5681 5680 5679 5677 5676 5674 5672 5670 5668 5666 5663 5661 5658 5656 5654 5651 5649 5647 5646 5644 5643 5641 5640 5639 5638 5637 5636 5635
5688 5687 5687 5687 5687 5687 5687 5687 5687 5686 5686 5685 5684 5684 5683 5682 5681 5679 5678 5677 5675 5673 5671 5669 5667 5664 5662 5659 5657 5654 5652 5650 5648 5646 5645 5643 5642 5641 5640 5639 5638 5638 5637
5690 5689 5689 5689 5689 5689 5689 5689 5688 5688 5687 5687 5686 5685 5684 5683 5682 5681 5680 5678 5676 5674 5672 5670 5668 5666 5663 5661 5658 5656 5654 5652 5650 5648 5646 5645 5644 5643 5642 5641 5640 5639 5639
5693 5693 5692 5692 5692 5692 5691 5691 5690 5690 5689 5689 5688 5687 5686 5685 5684 5683 5681 5680 5678 5676 5674 5672 5670 5668 5665 5663 5660 5658 5656 5654 5652 5650 5648 5647 5646 5645 5644 5643 5642 5641 5641
5697 5697 5696 5696 5695 5695 5694 5693 5693 5692 5692 5691 5690 5689 5688 5687 5686 5685 5683 5682 5680 5678 5677 5675 5672 5670 5668 5665 5663 5661 5658 5656 5654 5653 5651 5650 5649 5647 5646 5645 5645 5644 5643
5702 5701 5700 5699 5699 5698 5697 5696 5696 5695 5694 5693 5693 5692 5691 5690 5688 5687 5686 5684 5682 5681 5679 5677 5675 5673 5671 5668 5666 5664 5661 5659 5658 5656 5654 5653 5652 5650 5649 5648 5647 5646 5645
5706 5705 5704 5703 5702 5701 5700 5700 5699 5698 5697 5696 5695 5694 5693 5692 5690 5689 5688 5686 5684 5683 5681 5679 5677 5675 5673 5671 5669 5667 5665 5663 5661 5659 5657 5656 5654 5653 5652 5650 5649 5648 5646